Location: Aldersgate United Methodist Church
(35.0851°N, 89.9131°W)
Time: 05:36:07
(UTC+00:00)

Daily predictions for brighter satellites

Satellite Brightness Start Highest point End
(mag) Time Altitude Azimuth Time Altitude Azimuth Time Altitude Azimuth
Milstar 3 4.4 00:38:09 10° SSW 00:45:49 37° SSE 00:58:44 10° E
Meteor 1-16 Rocket 4.4 00:48:05 10° SSE 00:53:35 51° E 00:58:57 10° NNE
COSMOS 2406 3.5 00:49:44 10° NNW 00:55:31 79° WSW 01:01:13 10° SSE
Cosmos 1331 Rocket 4.2 00:55:27 10° SSW 01:00:39 82° WNW 01:05:56 10° NNE
Cosmos 1953 2.7 00:57:56 10° SSE 01:01:27 37° E 01:04:59 10° NNE
CZ-4B R/B 2.8 00:58:00 10° SSE 01:01:46 58° ENE 01:05:22 10° N
Cosmos 1850 Rocket 4.3 00:57:53 10° N 01:03:03 51° ENE 01:08:07 10° SE
Cosmos 2297 3.9 00:59:37 10° SSW 01:05:15 83° WNW 01:10:58 10° NNE
Meteor PRIRODA 4.1 01:04:34 10° S 01:07:54 60° W 01:11:19 10° NNW
CZ-4B DEB 4.2 01:03:31 10° SSE 01:09:00 70° ENE 01:14:32 10° N
ADEOS Rocket 3.2 01:04:35 10° S 01:10:12 67° WSW 01:15:40 10° NNW
NOSS 3-1 (A) 4.4 01:11:08 10° SE 01:13:21 13° ESE 01:15:38 10° ENE
Cosmos 2369 Rocket 2.2 01:08:57 10° SSW 01:14:38 86° ESE 01:20:20 10° NNE
SJ 16-02 2.9 01:12:02 10° NNE 01:15:04 18° ENE 01:17:18 13° E
ADEOS 4.0 01:10:03 10° S 01:15:12 67° WSW 01:20:25 10° NNW
DELTA 2 DEB (DPAF) 4.4 01:12:17 10° NNE 01:16:17 40° E 01:20:15 10° S
Iridium 82 4.4 01:16:04 10° N 01:19:35 79° E 01:23:16 10° S
SL-8 Rocket 4.3 01:13:42 10° N 01:19:36 44° E 01:25:24 10° SSE
SPOT 1/Viking Rocket 3.7 01:18:23 10° SSE 01:23:28 57° ENE 01:28:34 10° N
Cosmos 2263 4.1 01:17:55 10° SSW 01:23:32 73° ESE 01:29:08 10° NNE
Cosmos 2098 Rocket 4.4 01:19:32 10° SSE 01:24:15 28° E 01:28:19 10° NE
APEX 4.2 01:21:39 10° NW 01:24:37 35° WSW 01:27:20 10° S
CZ-4B R/B 3.4 01:23:20 10° SSE 01:28:51 56° ENE 01:34:20 10° N
Okean-O 4.3 01:28:34 15° E 01:29:42 16° ENE 01:32:22 10° NNE
Cosmos 2341 Rocket 4.0 01:24:38 10° N 01:30:52 61° E 01:37:00 10° SSE
Cosmos 1674 Rocket 4.1 01:26:47 10° NNW 01:31:10 62° W 01:35:32 10° S
Cosmos 1825 2.0 01:28:08 10° N 01:31:31 53° E 01:34:23 13° SSE
USA 234 3.5 01:28:21 15° ESE 01:33:45 60° NE 01:40:09 10° NW
NOSS 3-1 (C) 2.8 01:31:40 10° SSW 01:36:13 60° ESE 01:41:26 10° NE
Cosmos 2082 Rocket 4.3 01:34:23 10° NW 01:39:01 26° WSW 01:43:38 10° SSW
Hubble Space Telescope 1.7 01:36:41 10° WSW 01:40:12 31° S 01:41:39 24° SE
Resurs 1-3 4.0 01:37:39 10° S 01:41:57 64° W 01:46:17 10° NNW
Cosmos 2366 rocket 4.0 01:44:08 10° N 01:50:29 71° E 01:56:48 10° SSE
Okean O Rocket 1.6 01:49:28 24° SE 01:51:52 57° ENE 01:56:09 10° N
Cosmos 1025 Rocket 2.9 01:47:42 10° N 01:52:05 80° E 01:55:30 16° S
ATLAS 3B R/B 2.9 01:50:56 10° S 01:57:27 50° ESE 02:04:29 10° NE
Resurs 01 Rocket 1.5 01:55:01 25° SSE 01:57:32 69° ENE 02:01:56 10° N
Cosmos 2218 Rocket 4.0 01:51:24 10° N 01:57:49 78° E 02:03:55 11° S
CARTOSAT-1 3.5 01:58:16 31° SSE 02:00:10 65° ENE 02:04:25 10° N
Cosmos 1346 Rocket 3.9 01:57:23 10° SSW 02:01:02 42° W 02:04:41 10° N
USA 281 3.4 01:59:34 27° SE 02:03:05 54° ENE 02:09:27 10° NNW
Cosmos 1975 Rocket 3.1 01:59:57 10° N 02:04:12 54° E 02:05:11 43° SE
Cosmos 1821 Rocket 4.1 02:00:06 10° N 02:06:04 50° E 02:08:32 32° SE
USA 129 4.4 02:04:10 10° N 02:05:08 17° NNW 02:05:08 17° NNW
Cosmos 1959 Rocket 4.4 02:01:51 10° N 02:07:59 89° E 02:13:23 14° S
Cosmos 1328 4.3 02:05:45 10° NNW 02:09:27 56° W 02:11:46 21° SSW
OAO 3 Rocket 3.1 02:07:10 10° W 02:12:04 87° S 02:13:29 47° E
Meteor 1-21 Rocket 4.5 02:09:23 10° NNW 02:15:19 74° W 02:20:11 15° S
USA 186 3.5 02:16:17 19° SW 02:17:46 29° W 02:20:29 10° NW
DELTA 2 R/B (1) 3.8 02:13:15 10° WNW 02:18:45 60° SSW 02:20:22 43° SSE
CZ-4 R/B 3.8 02:19:40 10° SW 02:22:39 20° W 02:25:37 10° NW
ATLAS 5 CENTAUR R/B 1.6 02:20:30 10° SW 02:23:43 51° WNW 02:27:05 10° NNE
SPOT 5 3.6 02:24:44 40° ENE 02:24:52 40° ENE 02:29:49 10° N
Meteor 1-11 4.1 02:29:26 10° N 02:35:07 85° E 02:36:34 53° SSE
ERS-1 Rocket 4.2 02:36:16 28° NE 02:36:16 28° NE 02:39:32 10° N
Celestis-02/Orion 38 4.5 02:40:45 65° ENE 02:40:50 65° ENE 02:45:51 10° NNW
MOS 1 4.2 02:45:26 65° SSE 02:46:19 88° ENE 02:52:03 10° NNW
Okean 2 Rocket 4.3 02:52:04 34° NNE 02:52:04 34° NNE 02:54:39 10° N
Cosmos 1934 Rocket 4.3 02:46:12 10° N 02:51:27 47° ENE 02:51:27 47° ENE
SJ 16-02 2.8 02:49:39 10° NW 02:53:27 31° W 02:54:07 29° WSW
OAO 1 Rocket 4.5 02:50:25 10° W 02:55:16 74° W 02:55:16 74° W
IRS-1C Rocket 4.1 02:56:50 76° NNE 02:56:50 76° NNE 03:01:45 10° NNW
Cosmos 2297 Rocket 4.2 02:57:10 10° NNE 02:59:36 16° NE 02:59:36 16° NE
NOSS 3-1 (A) 3.5 02:58:36 10° SW 03:03:15 54° NW 03:08:39 10° NNE
MetOp-B 4.2 03:05:02 75° NW 03:05:02 75° NW 03:10:03 10° NNW
Okean-O 3.8 03:06:02 39° W 03:06:02 39° W 03:09:53 10° NNW
Terra 3.3 03:09:26 29° NNE 03:09:26 29° NNE 03:11:55 10° N
USA 234 4.3 03:15:43 31° SW 03:16:53 33° SW 03:22:39 10° WNW
Ariane Rocket 4.3 03:27:13 35° N 03:27:13 35° N 03:30:05 10° N
ATLAS 3B R/B 4.3 03:42:14 10° WSW 03:48:26 33° NW 03:55:02 10° NNE
Cosmos 2227 Rocket 4.3 04:11:03 10° N 04:12:58 20° N 04:12:58 20° N
CZ-4C R/B 4.0 04:31:13 10° NNW 04:36:24 38° NNE 04:36:24 38° NNE
Cosmos 2297 Rocket 4.4 04:39:43 10° NNW 04:41:24 20° NNW 04:41:24 20° NNW
CENTAUR R/B 4.1 05:09:07 10° NNW 05:15:26 42° NNE 05:15:26 42° NNE
ADEOS II 4.3 07:34:46 10° NNE 07:36:44 21° NE 07:36:44 21° NE
CZ-2D R/B 4.0 07:47:13 10° NNE 07:49:32 27° NNE 07:49:32 27° NNE
SL-16 R/B 4.0 07:51:52 30° E 07:52:50 32° ENE 07:58:11 10° N
COSMOS 2428 4.0 08:10:38 37° NNE 08:10:38 37° NNE 08:13:58 10° NNE
CZ-2C R/B 4.1 08:17:16 32° N 08:17:16 32° N 08:20:06 10° N
Cosmos 2237 Rocket 3.5 08:16:42 35° E 08:16:42 35° E 08:20:53 10° NE
Lacrosse 5 4.3 08:21:30 15° NNW 08:21:30 15° NNW 08:23:32 10° N
ATLAS 2AS CENTAUR R/B 4.4 08:19:52 22° SE 08:21:55 25° ESE 08:27:36 10° ENE
CZ-2C R/B 4.3 08:20:27 10° NNE 08:23:30 37° NNE 08:23:30 37° NNE
ALOS 4.0 08:21:25 10° NNE 08:23:57 29° NE 08:23:57 29° NE
Resurs 1-4 Rocket 3.8 08:27:45 10° N 08:30:10 25° NNW 08:30:10 25° NNW
Cosmos 2333 Rocket 4.5 08:34:50 13° NNW 08:34:50 13° NNW 08:36:13 10° NNW
Nadezhda 4 Rocket 4.3 08:44:01 56° NNW 08:44:01 56° NNW 08:48:57 10° N
H-2A R/B 4.2 08:46:24 37° S 08:46:24 37° S 09:13:44 10° ESE
NOSS 0 Rocket 4.0 08:48:14 67° NNW 08:48:14 67° NNW 08:53:46 10° NNE
Cosmos 1680 Rocket 4.3 08:47:51 44° ESE 08:48:02 44° ESE 08:53:04 10° NNE
Cosmos 2278 Rocket 3.1 08:47:42 10° N 08:53:09 46° ENE 08:58:32 10° SE
Cosmos 1428 Rocket 4.3 08:53:48 86° SW 08:53:55 87° W 09:00:14 10° N
Cosmos 2219 Rocket 4.2 08:55:50 15° NW 08:55:50 15° NW 08:57:54 10° NNW
BREEZE-M DEB (TANK) 3.8 09:00:45 78° NNW 09:00:45 78° NNW 09:11:01 10° NE
RESURS DK-1 4.4 09:04:22 20° N 09:04:22 20° N 09:05:56 10° N
Meteor 2-10 4.5 08:59:07 10° N 09:04:45 67° E 09:07:23 32° SSE
SL-16 R/B 3.8 09:03:20 18° SSE 09:06:19 29° ESE 09:11:06 10° NE
Cosmos 1151 Rocket 3.8 09:07:55 47° N 09:07:55 47° N 09:11:04 10° N
METEOR-M 4.3 09:05:23 10° NNE 09:10:42 68° ESE 09:11:50 52° SSE
USA 308 4.5 09:12:46 25° ESE 09:12:46 25° ESE 09:15:20 10° ENE
CZ-2C R/B 3.2 09:07:41 10° NNE 09:12:43 50° E 09:14:38 33° SSE
BREEZE-M DEB (TANK) 4.5 09:13:45 45° WSW 09:16:42 75° NNW 09:51:01 10° ENE
Cosmos 921 Rocket 3.9 09:16:42 39° SE 09:17:23 42° E 09:21:26 10° NNE
ADEOS II 3.6 09:14:43 10° NNW 09:17:38 23° NW 09:17:38 23° NW
Cosmos 1626 4.1 09:18:46 20° ESE 09:19:30 22° E 09:22:06 10° NE
Meteor 1-19 Rocket 4.3 09:20:01 57° W 09:20:15 57° W 09:26:09 10° N
Cosmos 923 Rocket 4.0 09:23:19 58° WNW 09:23:19 58° WNW 09:28:31 10° N
Cosmos 1975 4.3 09:20:27 10° NNE 09:24:00 35° E 09:27:22 11° SE
Cosmos 1092 Rocket 3.9 09:24:59 53° WSW 09:26:00 61° W 09:32:05 10° N
CZ-2D R/B 4.3 09:29:40 10° NW 09:30:50 12° NW 09:30:50 12° NW
Cosmos 2026 Rocket 4.1 09:32:12 46° WSW 09:33:28 53° W 09:39:40 10° N
Envisat 2.9 09:28:34 10° N 09:33:38 75° WNW 09:34:51 52° SW
BREEZE-M DEB (TANK) 3.5 09:34:04 37° W 09:35:35 46° NW 09:38:42 10° NE
SL-16 R/B 3.1 09:36:56 35° W 09:36:56 35° W 09:41:53 10° NNW
NOSS 2-2 (E) 4.4 09:31:24 10° NNW 09:36:33 82° ENE 09:43:58 10° SSE
EO 1 Delta rocket 4.3 09:37:27 10° N 09:41:47 41° WNW 09:41:49 41° WNW
Meteor 1-18 Rocket 4.2 09:39:20 23° S 09:42:55 83° E 09:48:38 10° N
Cosmos 1666 Rocket 3.7 09:41:06 10° N 09:45:34 74° E 09:49:58 10° SSE
CZ-4 R/B 4.3 09:45:12 10° N 09:49:33 38° WNW 09:49:59 37° W
NOSS 2-2 (D) 4.4 09:46:05 10° NNW 09:51:07 80° ENE 09:58:23 10° SSE
Meteor 2-4 Rocket 3.5 09:48:37 32° SSW 09:51:09 68° W 09:56:36 10° N
Thor Agena Rocket 3.4 09:46:23 10° N 09:51:23 70° WNW 09:53:50 30° SSW
Cosmos 1943 Rocket 2.2 09:46:38 10° NNW 09:52:20 82° ENE 09:57:59 10° SSE
YAOGAN 6 2.4 09:50:01 10° N 09:53:02 56° WNW 09:53:02 56° WNW
H-2A R/B 3.4 09:50:37 10° NNE 09:55:15 36° E 09:59:59 10° SSE
BlueWalker 3 4.0 09:52:56 10° NNW 09:56:17 28° NE 09:59:37 10° E
NOAA 11 4.4 09:54:15 10° N 09:59:31 52° WNW 10:02:18 27° SW
Cosmos 2237 Rocket 3.3 09:58:31 24° W 09:59:47 26° WNW 10:04:29 10° N
ALOS 4.1 10:00:10 10° NNW 10:02:16 14° WNW 10:02:16 14° WNW
Cosmos 1340 Rocket 3.6 10:04:12 29° WNW 10:04:12 29° WNW 10:07:31 10° NNW
Cosmos 1867 4.2 10:01:24 10° NW 10:06:08 31° WSW 10:10:51 10° S
DMSP B5D2-2 4.0 10:03:11 10° SSE 10:08:23 87° WSW 10:13:37 10° NNW
Cosmos 1328 Rocket 4.0 10:08:30 29° SW 10:10:12 42° W 10:14:24 10° N
ATLAS 2AS CENTAUR R/B 3.0 10:07:19 22° SW 10:12:22 62° WNW 10:19:32 10° NNE
Cosmos 1805 3.7 10:09:27 10° NNW 10:12:51 36° W 10:13:52 30° SW
CRYOSAT 2 4.3 10:09:08 10° N 10:14:02 88° E 10:18:53 10° S
Cosmos 1707 4.3 10:12:51 10° SSE 10:16:11 35° E 10:19:33 10° NNE
SWAS 4.3 10:15:03 10° NNW 10:19:14 69° WSW 10:23:24 10° SSE
Chandra Rocket (1) 2.9 10:18:55 21° SW 10:20:34 34° SSE 10:26:57 10° E
IRS-1D 4.1 10:17:56 10° N 10:22:36 37° WNW 10:26:05 17° SW
Cosmos 1633 Rocket 3.2 10:19:20 10° NNW 10:23:30 47° W 10:27:38 10° SSW
S3M 4.1 10:18:44 10° N 10:24:56 80° E 10:31:10 10° S
Cosmos 1048 Rocket 4.0 10:20:58 10° SSW 10:26:18 87° WNW 10:31:37 10° NNE
Cosmos 1943 4.4 10:22:05 10° S 10:27:24 43° ESE 10:32:44 10° NE
Cosmos 2266 Rocket 3.9 10:22:48 10° SSW 10:28:54 72° W 10:34:57 10° N
Cosmos 1655 Rocket 4.1 10:23:10 10° S 10:29:21 79° E 10:35:35 10° N
SL-08 ROCKET BODY 4.3 10:28:36 10° S 10:34:26 76° W 10:40:25 10° N
Cosmos 2278 Rocket 3.3 10:32:43 10° NW 10:36:47 21° W 10:40:52 10° SSW
Cosmos 1461 4.0 10:39:39 10° WNW 10:42:15 18° WSW 10:44:51 10° SSW
ARIANE 5 R/B 3.6 10:37:23 10° NNE 10:42:27 49° E 10:47:28 10° S
Cosmos 1674 2.5 10:40:36 10° SSW 10:43:58 54° W 10:47:21 10° N
USA 308 3.7 10:41:23 14° W 10:44:07 31° NW 10:47:39 10° NNE
Delta 2 Rocket 4.3 10:40:59 11° SW 10:45:25 45° SSE 10:49:50 10° E
Cosmos 2056 Rocket 4.0 10:42:15 10° NNW 10:47:17 41° WSW 10:52:19 10° S
ATLAS 5 CENTAUR R/B 3.5 10:42:33 11° WSW 10:47:45 17° SSW 10:50:50 10° SSE
SL-16 R/B 3.0 10:45:15 10° SW 10:50:15 33° WNW 10:55:20 10° N
CZ-2C R/B 4.1 10:47:02 10° NNW 10:50:23 18° WNW 10:53:41 10° WSW
Cosmos 2315 Rocket 4.1 10:45:27 10° N 10:51:40 86° E 10:57:52 10° S
ARGOS 3.9 10:46:40 10° NNE 10:51:57 57° E 10:57:11 10° S
Cosmos 1766 3.6 10:49:28 10° NNW 10:52:54 38° W 10:56:20 10° SSW
Cosmos 1939 Rocket 2.7 10:49:14 10° N 10:52:59 68° WNW 10:56:44 10° SSW
Cosmos 1626 3.8 10:51:53 11° W 10:53:14 13° WNW 10:54:46 10° NW
Cosmos 1452 Rocket 4.2 10:49:17 10° N 10:54:29 61° ENE 10:59:38 10° SSE
Cosmos 1340 4.2 10:53:05 10° NW 10:54:59 14° W 10:56:54 10° SW
KORONAS-FOTON 4.0 10:52:33 10° SSW 10:56:07 47° W 10:59:39 10° N
Cosmos 1656 Rocket 3.8 10:55:31 10° NNW 11:00:57 78° ENE 11:06:21 10° SSE
NOSS 3-1 (C) 4.4 10:54:44 10° NNW 11:02:38 87° ENE 11:11:57 10° SSE
ASTRO E2 3.5 11:01:35 10° SW 11:04:48 34° SSE 11:08:02 10° ESE
CZ-3 R/B 3.1 11:05:41 10° WSW 11:22:31 46° S 11:28:10 10° ESE
